TimeMST,TemperatureF,Dew PointF,Humidity,Sea Level PressureIn,VisibilityMPH,Wind Direction,Wind SpeedMPH,Gust SpeedMPH,PrecipitationIn,Events,Conditions,WindDirDegrees,DateUTC
12:53 AM,79.0,12.0,8,29.71,10.0,SW,4.6,-,N/A,,Clear,230,2013-06-15 07:53:00
1:53 AM,77.0,12.9,9,29.72,10.0,Calm,Calm,-,N/A,,Clear,0,2013-06-15 08:53:00
2:53 AM,75.9,12.9,9,29.72,10.0,Calm,Calm,-,N/A,,Clear,0,2013-06-15 09:53:00
3:53 AM,72.0,16.0,12,29.74,10.0,Calm,Calm,-,N/A,,Clear,0,2013-06-15 10:53:00
4:53 AM,71.1,16.0,12,29.76,10.0,Calm,Calm,-,N/A,,Clear,0,2013-06-15 11:53:00
5:53 AM,72.0,19.9,14,29.78,10.0,Calm,Calm,-,N/A,,Clear,0,2013-06-15 12:53:00
6:53 AM,75.0,14.0,10,29.80,10.0,Calm,Calm,-,N/A,,Clear,0,2013-06-15 13:53:00
7:53 AM,75.9,28.9,18,29.81,10.0,Calm,Calm,-,0.00,,Partly Cloudy,0,2013-06-15 14:53:00
8:53 AM,80.1,16.0,9,29.81,10.0,North,6.9,-,N/A,,Clear,350,2013-06-15 15:53:00
9:53 AM,84.9,19.0,9,29.80,10.0,NNE,5.8,-,N/A,,Clear,30,2013-06-15 16:53:00
10:53 AM,88.0,24.1,10,29.79,10.0,Variable,6.9,-,N/A,,Clear,0,2013-06-15 17:53:00
11:53 AM,91.9,28.9,11,29.77,10.0,North,9.2,16.1,N/A,,Clear,10,2013-06-15 18:53:00
12:53 PM,91.0,33.1,13,29.75,10.0,NW,6.9,-,0.00,Rain,Light Rain,310,2013-06-15 19:53:00
1:02 PM,93.2,30.2,11,29.96,10.0,WSW,8.1,16.1,0.00,Rain-Thunderstorm,Light Rain,240,2013-06-15 20:02:00
1:19 PM,95.0,30.2,10,29.96,10.0,NNW,15.0,20.7,0.00,Thunderstorm,Clear,330,2013-06-15 20:19:00
1:44 PM,93.2,28.4,10,29.95,10.0,NW,10.4,19.6,0.00,,Clear,310,2013-06-15 20:44:00
1:53 PM,93.0,28.9,10,29.73,10.0,NNW,9.2,-,0.00,,Clear,340,2013-06-15 20:53:00
2:21 PM,95.0,28.4,9,29.93,10.0,Variable,4.6,-,N/A,Thunderstorm,Thunderstorm,0,2013-06-15 21:21:00
2:53 PM,93.9,25.0,8,29.70,10.0,Variable,4.6,-,N/A,,Clear,0,2013-06-15 21:53:00
3:08 PM,95.0,26.6,9,29.91,10.0,Variable,5.8,-,N/A,Thunderstorm,Clear,0,2013-06-15 22:08:00
3:24 PM,93.2,30.2,11,29.91,10.0,West,8.1,-,N/A,,Clear,280,2013-06-15 22:24:00
3:35 PM,95.0,33.8,12,29.91,10.0,North,13.8,19.6,N/A,Thunderstorm,Clear,360,2013-06-15 22:35:00
3:53 PM,93.9,33.1,12,29.70,10.0,North,11.5,17.3,N/A,Thunderstorm,Clear,10,2013-06-15 22:53:00
4:05 PM,93.2,33.8,12,29.92,10.0,North,15.0,-,N/A,Thunderstorm,Clear,10,2013-06-15 23:05:00
4:39 PM,91.4,37.4,15,29.91,10.0,ENE,17.3,-,N/A,,Clear,60,2013-06-15 23:39:00
4:53 PM,91.9,35.1,13,29.70,10.0,NE,16.1,23.0,N/A,,Clear,40,2013-06-15 23:53:00
5:53 PM,93.0,33.1,12,29.68,10.0,Calm,Calm,-,0.00,,Clear,0,2013-06-16 00:53:00
6:53 PM,91.0,33.1,13,29.70,10.0,NNE,5.8,-,N/A,,Clear,30,2013-06-16 01:53:00
7:53 PM,88.0,34.0,15,29.72,10.0,North,4.6,-,N/A,,Clear,10,2013-06-16 02:53:00
8:53 PM,84.9,34.0,16,29.74,10.0,NW,3.5,-,N/A,,Clear,310,2013-06-16 03:53:00
9:53 PM,84.9,30.0,14,29.76,10.0,Calm,Calm,-,N/A,,Clear,0,2013-06-16 04:53:00
10:53 PM,84.9,28.0,13,29.77,10.0,WSW,4.6,-,N/A,,Clear,250,2013-06-16 05:53:00
11:53 PM,82.0,28.9,14,29.78,10.0,Calm,Calm,-,N/A,,Clear,0,2013-06-16 06:53:00